Location: Bruderhein
(53.8035°N, 112.9265°W)
Time: 14:31:40
(UTC+00:00)

NOAA 15 - Visible Passes

Search period start: 27 March 2023 00:00
Search period end: 06 April 2023 00:00
Orbit: 797 x 811 km, 98.6° (Epoch: 27 March)

Date Brightness Start Highest point End Pass type
(mag) Time Alt. Az. Time Alt. Az. Time Alt. Az.
27 Mar 7.3 03:47:39 10° SW 03:51:15 18° W 03:54:54 10° NW visible
28 Mar 6.7 03:21:01 10° SSW 03:25:32 28° W 03:30:04 10° NW visible
29 Mar 6.0 02:54:53 10° SSW 02:59:54 42° W 03:04:57 10° NNW visible
30 Mar 5.2 02:29:05 10° S 02:34:21 65° WSW 02:39:39 10° NNW visible
30 Mar 7.6 04:13:12 10° WSW 04:15:12 12° W 04:17:11 10° WNW visible
31 Mar 7.3 03:45:41 10° SW 03:49:23 19° W 03:53:05 10° NW visible
01 Apr 6.7 03:19:05 10° SSW 03:23:39 29° W 03:28:13 10° NNW visible
02 Apr 5.9 02:52:58 10° S 02:58:01 43° W 03:03:05 10° NNW visible
03 Apr 7.6 04:11:08 10° WSW 04:13:17 12° W 04:15:27 10° WNW visible
04 Apr 7.3 03:43:42 10° SW 03:47:28 19° W 03:51:15 10° NW visible
05 Apr 6.7 03:17:09 10° SSW 03:21:45 29° W 03:26:21 10° NNW visible
